Flag for Philippines Weather past 2 weeks in Makati, Philippines

Now
86 °F

Passing clouds.


Feels Like: 97 °F
Forecast: 80 / 89 °F
Wind: 6 mph from Southwest

Location: National Airport

Current Time: Sep 4, 2015 at 9:01:59 PM

Latest Report: Sep 4, 2015 at 8:00 PM


Visibility: N/A

Pressure: 29.89 "Hg

Humidity: 75%

Dew point: 77 °F

Location of MakatiLocation

Historic Weather in Makati — Graph

°F

Makati temperature yesterday

Maximum temperature yesterday: 93 °F (at 2:00 PM)
Minimum temperature yesterday: 79 °F (at 3:00 AM)
Average temperature yesterday: 85 °F

Past Weeks' High & Low Weather Summary

 TemperatureHumidityPressure
High93 °F (Sep 3, 2:00 PM)100% (Aug 21, 2:00 AM)29.92 "Hg (Aug 21, 2:00 AM)
Low75 °F (Aug 21, 2:00 AM)49% (Sep 3, 4:00 PM)29.56 "Hg (Aug 21, 11:00 AM)
Average83 °F86%29.80 "Hg
* Reported Aug 20 8:00 PM — Sep 4 8:00 PM, Makati, Weather by CustomWeather, © 2015

Note: Actual official high and low records may vary slightly from our data, if they occured in-between our weather recording intervals... More about our weather records

Advertising

Makati weather history for previous 24 hours

 ConditionsComfort  
Time TempWeatherWind HumidityBarometerVisibility
8:00 PM
Fri, Sep 4
86 °FPassing clouds.6 mph75%29.89 "HgN/A
7:00 PMN/APassing clouds.5 mphN/A29.86 "HgN/A
6:00 PM86 °FPartly sunny.5 mph75%29.86 "HgN/A
5:00 PM88 °FBroken clouds.6 mph66%29.83 "HgN/A
4:00 PM88 °FBroken clouds.6 mph66%29.83 "HgN/A
3:00 PM88 °FPassing clouds.6 mph66%29.83 "HgN/A
2:00 PM90 °FPartly sunny.5 mph63%29.80 "HgN/A
1:00 PM91 °FPartly sunny.5 mph63%29.86 "HgN/A
12:00 PM90 °FBroken clouds.8 mph63%29.89 "HgN/A
11:00 AM90 °FBroken clouds.7 mph67%29.92 "HgN/A
10:00 AM90 °FScattered clouds.6 mph67%29.92 "HgN/A
9:00 AM88 °FScattered clouds.5 mph66%29.92 "HgN/A
8:00 AM86 °FScattered clouds.2 mph75%29.92 "HgN/A
7:00 AM82 °FScattered clouds.1 mph89%29.92 "HgN/A
6:00 AM81 °FScattered clouds.5 mph94%29.92 "HgN/A
5:00 AM81 °FPassing clouds.5 mph94%29.89 "HgN/A
4:00 AM81 °FPassing clouds.6 mph100%29.89 "HgN/A
3:00 AM82 °FPassing clouds.7 mph89%29.89 "HgN/A
2:00 AM82 °FPassing clouds.8 mph89%29.92 "HgN/A
1:00 AM82 °FPassing clouds.6 mph94%29.92 "HgN/A
12:00 AM82 °FPassing clouds.5 mph94%29.92 "HgN/A
10:00 PM
Thu, Sep 3
82 °FPassing clouds.2 mph94%29.92 "HgN/A
9:00 PM82 °FPassing clouds.3 mph94%29.92 "HgN/A
Weather by CustomWeather, © 2015

See weather overviewHow to use our weather pages